Stena Atlantica — ZCPR7 — position and weather

sailwx.info

Track history (hours):
 
Tides and Currents Weather Stations Pressure Air Temp Water Temp Dewpoint Dewpoint Depression Visibility Wind Speed Wind Dir Waves Ship Positions

Stena Atlantica

Last reported at 2014-Jul-31 04:28 UTC. Time now 2014-Jul-31 11:30 UTC.
Position N 59°14' E 021°49'.

Length 245 m; draft 14.1 m.

Type: Tanker. MMSI: 319161000.

Date/timePositionNaut miles runAvg speedWind from/ knotsBaromVisibWave heightAir tempDewpointWater temp
2014-Jul-31 04:28N 59°14' E 021°49'1212.6
2014-Jul-31 03:33N 59°21' E 022°07'1312.6
2014-Jul-31 02:33N 59°28' E 022°26'1212.2
2014-Jul-31 01:34N 59°33' E 022°48'1312.6
2014-Jul-31 00:33N 59°36' E 023°12'1212.4
2014-Jul-30 23:33N 59°40' E 023°36'1312.8
2014-Jul-30 22:34N 59°43' E 024°00'1312.5
2014-Jul-30 21:33N 59°47' E 024°24'1212.3
2014-Jul-30 20:33N 59°50' E 024°48'1712.6
2014-Jul-30 19:10N 59°53' E 025°22'912.6
2014-Jul-30 18:29N 59°54' E 025°39'1212.5
2014-Jul-30 17:33N 59°57' E 026°02'1212.2
2014-Jul-30 16:33N 60°00' E 026°26'1211.9
2014-Jul-30 15:34N 60°00' E 026°49'1211.6
2014-Jul-30 14:33N 60°02' E 027°12'1312.3
2014-Jul-30 13:28N 60°09' E 027°35'1311.2
2014-Jul-30 12:18N 60°10' E 028°01'18 0.5
2014-Jul-29 00:33N 60°06' E 028°37'7 0.4
2014-Jul-28 09:06N 60°00' E 028°29'0 0.0
2014-Jul-28 06:33N 60°00' E 028°29'0 0.0
2014-Jul-28 05:33N 60°00' E 028°29'0 0.0
2014-Jul-27 19:30N 60°00' E 028°29'0 0.0
2014-Jul-27 06:15N 60°00' E 028°29'0 0.0
2014-Jul-27 05:33N 60°00' E 028°29'0 0.0
2014-Jul-27 04:30N 60°00' E 028°29'0 0.0
2014-Jul-27 03:33N 60°00' E 028°29'0 0.0
2014-Jul-26 08:15N 60°00' E 028°29'0 0.0
2014-Jul-26 07:33N 60°00' E 028°29'0 0.0
2014-Jul-26 06:33N 60°00' E 028°29'0 0.0
2014-Jul-25 21:27N 60°00' E 028°29'0 0.1
2014-Jul-25 20:33N 60°00' E 028°29'0 0.0
2014-Jul-25 03:06N 60°00' E 028°29'29 0.9
2014-Jul-23 18:34N 60°06' E 027°31'1312.8
2014-Jul-23 17:33N 59°59' E 027°09'1212.3
2014-Jul-23 16:33N 59°59' E 026°44'1312.6
2014-Jul-23 15:34N 59°57' E 026°20'1312.5
2014-Jul-23 14:33N 59°53' E 025°55'1212.1
2014-Jul-23 13:34N 59°51' E 025°32'1312.4
2014-Jul-23 12:30N 59°48' E 025°07'1212.6
2014-Jul-23 11:33N 59°45' E 024°44'1812.3
2014-Jul-23 10:04N 59°41' E 024°08'912.3
2014-Jul-23 09:19N 59°38' E 023°51'912.3
2014-Jul-23 08:33N 59°35' E 023°33'1512.6
2014-Jul-23 07:19N 59°30' E 023°05'1112.3
2014-Jul-23 06:25N 59°27' E 022°44'1012.0
2014-Jul-23 05:33N 59°22' E 022°26'1211.9
2014-Jul-23 04:34N 59°14' E 022°08'1212.0
2014-Jul-23 03:34N 59°07' E 021°49'1212.0
2014-Jul-23 02:34N 58°57' E 021°36'1212.2
2014-Jul-23 01:34N 58°47' E 021°23'1212.2
2014-Jul-23 00:33N 58°37' E 021°09'1212.3
2014-Jul-22 23:33N 58°27' E 020°56'1212.2
2014-Jul-22 22:33N 58°17' E 020°43'1212.1
2014-Jul-22 21:34N 58°07' E 020°30'1211.6
2014-Jul-22 20:33N 57°56' E 020°21'1212.1
2014-Jul-22 19:34N 57°44' E 020°21'1212.2
2014-Jul-22 18:33N 57°32' E 020°19'1212.1
2014-Jul-22 17:34N 57°20' E 020°19'1212.1
2014-Jul-22 16:33N 57°07' E 020°18'1212.1
2014-Jul-22 15:34N 56°55' E 020°18'1212.1
2014-Jul-22 14:34N 56°43' E 020°17'1212.1
2014-Jul-22 13:34N 56°31' E 020°16'1111.1
2014-Jul-22 12:34N 56°21' E 020°23'1212.4
2014-Jul-22 11:34N 56°13' E 020°40'1212.2
2014-Jul-22 10:34N 56°04' E 020°55'  
Track history (hours):
 
Tides and Currents Weather Stations Pressure Air Temp Water Temp Dewpoint Dewpoint Depression Visibility Wind Speed Wind Dir Waves Ship Positions

Stena Atlantica

Last reported at 2014-Jul-31 04:28 UTC. Time now 2014-Jul-31 11:30 UTC.
Position N 59°14' E 021°49'.

Length 245 m; draft 14.1 m.

Type: Tanker. MMSI: 319161000.

Date/timePositionNaut miles runAvg speedWind from/ knotsBaromVisibWave heightAir tempDewpointWater temp
2014-Jul-31 04:28N 59°14' E 021°49'1212.6
2014-Jul-31 03:33N 59°21' E 022°07'1312.6
2014-Jul-31 02:33N 59°28' E 022°26'1212.2
2014-Jul-31 01:34N 59°33' E 022°48'1312.6
2014-Jul-31 00:33N 59°36' E 023°12'1212.4
2014-Jul-30 23:33N 59°40' E 023°36'1312.8
2014-Jul-30 22:34N 59°43' E 024°00'1312.5
2014-Jul-30 21:33N 59°47' E 024°24'1212.3
2014-Jul-30 20:33N 59°50' E 024°48'1712.6
2014-Jul-30 19:10N 59°53' E 025°22'912.6
2014-Jul-30 18:29N 59°54' E 025°39'1212.5
2014-Jul-30 17:33N 59°57' E 026°02'1212.2
2014-Jul-30 16:33N 60°00' E 026°26'1211.9
2014-Jul-30 15:34N 60°00' E 026°49'1211.6
2014-Jul-30 14:33N 60°02' E 027°12'1312.3
2014-Jul-30 13:28N 60°09' E 027°35'1311.2
2014-Jul-30 12:18N 60°10' E 028°01'18 0.5
2014-Jul-29 00:33N 60°06' E 028°37'7 0.4
2014-Jul-28 09:06N 60°00' E 028°29'0 0.0
2014-Jul-28 06:33N 60°00' E 028°29'0 0.0
2014-Jul-28 05:33N 60°00' E 028°29'0 0.0
2014-Jul-27 19:30N 60°00' E 028°29'0 0.0
2014-Jul-27 06:15N 60°00' E 028°29'0 0.0
2014-Jul-27 05:33N 60°00' E 028°29'0 0.0
2014-Jul-27 04:30N 60°00' E 028°29'0 0.0
2014-Jul-27 03:33N 60°00' E 028°29'0 0.0
2014-Jul-26 08:15N 60°00' E 028°29'0 0.0
2014-Jul-26 07:33N 60°00' E 028°29'0 0.0
2014-Jul-26 06:33N 60°00' E 028°29'0 0.0
2014-Jul-25 21:27N 60°00' E 028°29'0 0.1
2014-Jul-25 20:33N 60°00' E 028°29'0 0.0
2014-Jul-25 03:06N 60°00' E 028°29'29 0.9
2014-Jul-23 18:34N 60°06' E 027°31'1312.8
2014-Jul-23 17:33N 59°59' E 027°09'1212.3
2014-Jul-23 16:33N 59°59' E 026°44'1312.6
2014-Jul-23 15:34N 59°57' E 026°20'1312.5
2014-Jul-23 14:33N 59°53' E 025°55'1212.1
2014-Jul-23 13:34N 59°51' E 025°32'1312.4
2014-Jul-23 12:30N 59°48' E 025°07'1212.6
2014-Jul-23 11:33N 59°45' E 024°44'1812.3
2014-Jul-23 10:04N 59°41' E 024°08'912.3
2014-Jul-23 09:19N 59°38' E 023°51'912.3
2014-Jul-23 08:33N 59°35' E 023°33'1512.6
2014-Jul-23 07:19N 59°30' E 023°05'1112.3
2014-Jul-23 06:25N 59°27' E 022°44'1012.0
2014-Jul-23 05:33N 59°22' E 022°26'1211.9
2014-Jul-23 04:34N 59°14' E 022°08'1212.0
2014-Jul-23 03:34N 59°07' E 021°49'1212.0
2014-Jul-23 02:34N 58°57' E 021°36'1212.2
2014-Jul-23 01:34N 58°47' E 021°23'1212.2
2014-Jul-23 00:33N 58°37' E 021°09'1212.3
2014-Jul-22 23:33N 58°27' E 020°56'1212.2
2014-Jul-22 22:33N 58°17' E 020°43'1212.1
2014-Jul-22 21:34N 58°07' E 020°30'1211.6
2014-Jul-22 20:33N 57°56' E 020°21'1212.1
2014-Jul-22 19:34N 57°44' E 020°21'1212.2
2014-Jul-22 18:33N 57°32' E 020°19'1212.1
2014-Jul-22 17:34N 57°20' E 020°19'1212.1
2014-Jul-22 16:33N 57°07' E 020°18'1212.1
2014-Jul-22 15:34N 56°55' E 020°18'1212.1
2014-Jul-22 14:34N 56°43' E 020°17'1212.1
2014-Jul-22 13:34N 56°31' E 020°16'1111.1
2014-Jul-22 12:34N 56°21' E 020°23'1212.4
2014-Jul-22 11:34N 56°13' E 020°40'1212.2
2014-Jul-22 10:34N 56°04' E 020°55'  

Dump ship's entire track history